![]() |
EMODnet Physics ERDDAP
Easier access to scientific data |
log in|
Brought to you by EMODnet Physics |
| Dataset Title: | NDBC - Collection of dew point temperature (DEWT) TimeSeries - IN SITU MultiPointTimeSeriesObservation
|
| Institution: | NDBC (Dataset ID: TS_DEWT_NDBC) |
| Information: | Summary
| License
| FGDC
| ISO 19115
| Metadata
| Background
| Subset
| Data Access Form
| Make a graph
|
| Name | Last modified | Size | Description | |
|---|---|---|---|---|
| Parent Directory | - | - | ||
| 42040_TS_DEWT_011996.nc | 26-Oct-2024 15:42 | 588135 | ||
| 42040_TS_DEWT_011997.nc | 26-Oct-2024 15:42 | 438899 | ||
| 42040_TS_DEWT_011998.nc | 26-Oct-2024 15:42 | 588192 | ||
| 42040_TS_DEWT_011999.nc | 26-Oct-2024 15:43 | 588071 | ||
| 42040_TS_DEWT_012000.nc | 26-Oct-2024 15:43 | 587779 | ||
| 42040_TS_DEWT_012001.nc | 26-Oct-2024 15:43 | 438880 | ||
| 42040_TS_DEWT_012002.nc | 26-Oct-2024 15:43 | 438599 | ||
| 42040_TS_DEWT_012003.nc | 26-Oct-2024 15:43 | 438199 | ||
| 42040_TS_DEWT_012004.nc | 26-Oct-2024 15:43 | 438621 | ||
| 42040_TS_DEWT_012005.nc | 26-Oct-2024 15:43 | 439425 | ||
| 42040_TS_DEWT_012006.nc | 26-Oct-2024 15:43 | 436045 | ||
| 42040_TS_DEWT_012007.nc | 26-Oct-2024 15:43 | 438814 | ||
| 42040_TS_DEWT_012008.nc | 26-Oct-2024 15:43 | 438805 | ||
| 42040_TS_DEWT_012009.nc | 26-Oct-2024 15:43 | 419676 | ||
| 42040_TS_DEWT_012011.nc | 26-Oct-2024 15:43 | 439734 | ||
| 42040_TS_DEWT_012012.nc | 26-Oct-2024 15:43 | 587848 | ||
| 42040_TS_DEWT_012013.nc | 26-Oct-2024 15:43 | 587867 | ||
| 42040_TS_DEWT_012014.nc | 26-Oct-2024 15:43 | 440281 | ||
| 42040_TS_DEWT_012015.nc | 26-Oct-2024 15:43 | 588176 | ||
| 42040_TS_DEWT_012016.nc | 26-Oct-2024 15:43 | 432566 | ||
| 42040_TS_DEWT_012017.nc | 26-Oct-2024 15:43 | 588166 | ||
| 42040_TS_DEWT_012018.nc | 26-Oct-2024 15:43 | 588217 | ||
| 42040_TS_DEWT_012019.nc | 26-Oct-2024 15:43 | 439766 | ||
| 42040_TS_DEWT_012020.nc | 26-Oct-2024 15:44 | 439965 | ||
| 42040_TS_DEWT_012022.nc | 26-Oct-2024 15:44 | 439776 | ||
| 42040_TS_DEWT_012023.nc | 26-Oct-2024 15:44 | 439751 | ||
| 42040_TS_DEWT_012024.nc | 26-Oct-2024 15:44 | 440125 | ||
| 42040_TS_DEWT_012025.nc | 07-Feb-2025 10:02 | 436909 | ||
| 42040_TS_DEWT_021996.nc | 26-Oct-2024 15:44 | 440163 | ||
| 42040_TS_DEWT_021997.nc | 26-Oct-2024 15:44 | 440123 | ||
| 42040_TS_DEWT_021998.nc | 26-Oct-2024 15:44 | 440098 | ||
| 42040_TS_DEWT_021999.nc | 26-Oct-2024 15:44 | 587883 | ||
| 42040_TS_DEWT_022000.nc | 26-Oct-2024 15:44 | 440113 | ||
| 42040_TS_DEWT_022001.nc | 26-Oct-2024 15:44 | 588158 | ||
| 42040_TS_DEWT_022002.nc | 26-Oct-2024 15:44 | 588191 | ||
| 42040_TS_DEWT_022003.nc | 26-Oct-2024 15:44 | 437709 | ||
| 42040_TS_DEWT_022004.nc | 26-Oct-2024 15:44 | 588217 | ||
| 42040_TS_DEWT_022005.nc | 26-Oct-2024 15:44 | 588213 | ||
| 42040_TS_DEWT_022006.nc | 26-Oct-2024 15:44 | 439014 | ||
| 42040_TS_DEWT_022007.nc | 26-Oct-2024 15:44 | 439805 | ||
| 42040_TS_DEWT_022008.nc | 26-Oct-2024 15:44 | 439839 | ||
| 42040_TS_DEWT_022009.nc | 26-Oct-2024 15:44 | 439788 | ||
| 42040_TS_DEWT_022011.nc | 26-Oct-2024 15:44 | 440056 | ||
| 42040_TS_DEWT_022012.nc | 26-Oct-2024 15:45 | 437261 | ||
| 42040_TS_DEWT_022013.nc | 26-Oct-2024 15:45 | 428280 | ||
| 42040_TS_DEWT_022014.nc | 26-Oct-2024 15:45 | 440167 | ||
| 42040_TS_DEWT_022015.nc | 26-Oct-2024 15:45 | 439729 | ||
| 42040_TS_DEWT_022018.nc | 26-Oct-2024 15:45 | 587784 | ||
| 42040_TS_DEWT_022019.nc | 26-Oct-2024 15:45 | 588066 | ||
| 42040_TS_DEWT_022020.nc | 26-Oct-2024 15:45 | 588045 | ||
| 42040_TS_DEWT_022022.nc | 26-Oct-2024 15:45 | 588094 | ||
| 42040_TS_DEWT_022023.nc | 26-Oct-2024 15:45 | 437889 | ||
| 42040_TS_DEWT_022024.nc | 16-Sep-2024 16:51 | 588192 | ||
| 42040_TS_DEWT_022025.nc | 01-Mar-2025 06:56 | 425618 | ||
| 42040_TS_DEWT_031996.nc | 26-Oct-2024 15:45 | 439664 | ||
| 42040_TS_DEWT_031997.nc | 26-Oct-2024 15:45 | 437313 | ||
| 42040_TS_DEWT_031998.nc | 26-Oct-2024 15:45 | 437567 | ||
| 42040_TS_DEWT_031999.nc | 26-Oct-2024 15:45 | 587984 | ||
| 42040_TS_DEWT_032000.nc | 26-Oct-2024 15:45 | 588135 | ||
| 42040_TS_DEWT_032001.nc | 26-Oct-2024 15:45 | 439346 | ||
| 42040_TS_DEWT_032002.nc | 26-Oct-2024 15:45 | 435592 | ||
| 42040_TS_DEWT_032003.nc | 26-Oct-2024 15:45 | 588164 | ||
| 42040_TS_DEWT_032004.nc | 26-Oct-2024 15:45 | 439882 | ||
| 42040_TS_DEWT_032005.nc | 26-Oct-2024 15:45 | 437574 | ||
| 42040_TS_DEWT_032006.nc | 26-Oct-2024 15:45 | 439946 | ||
| 42040_TS_DEWT_032007.nc | 26-Oct-2024 15:45 | 440098 | ||
| 42040_TS_DEWT_032009.nc | 26-Oct-2024 15:45 | 440115 | ||
| 42040_TS_DEWT_032010.nc | 26-Oct-2024 15:46 | 440114 | ||
| 42040_TS_DEWT_032011.nc | 26-Oct-2024 15:46 | 440154 | ||
| 42040_TS_DEWT_032012.nc | 26-Oct-2024 15:46 | 440229 | ||
| 42040_TS_DEWT_032013.nc | 26-Oct-2024 15:46 | 588052 | ||
| 42040_TS_DEWT_032014.nc | 26-Oct-2024 15:46 | 437682 | ||
| 42040_TS_DEWT_032015.nc | 26-Oct-2024 15:46 | 588119 | ||
| 42040_TS_DEWT_032018.nc | 26-Oct-2024 15:46 | 588161 | ||
| 42040_TS_DEWT_032019.nc | 26-Oct-2024 15:46 | 588143 | ||
| 42040_TS_DEWT_032020.nc | 26-Oct-2024 15:46 | 439761 | ||
| 42040_TS_DEWT_032022.nc | 26-Oct-2024 15:46 | 588193 | ||
| 42040_TS_DEWT_032023.nc | 26-Oct-2024 15:46 | 588325 | ||
| 42040_TS_DEWT_032025.nc | 02-Apr-2025 05:33 | 439504 | ||
| 42040_TS_DEWT_041996.nc | 26-Oct-2024 15:46 | 430899 | ||
| 42040_TS_DEWT_041997.nc | 26-Oct-2024 15:46 | 430009 | ||
| 42040_TS_DEWT_041998.nc | 26-Oct-2024 15:46 | 439946 | ||
| 42040_TS_DEWT_041999.nc | 26-Oct-2024 15:46 | 440131 | ||
| 42040_TS_DEWT_042000.nc | 26-Oct-2024 15:46 | 439138 | ||
| 42040_TS_DEWT_042001.nc | 26-Oct-2024 15:46 | 439884 | ||
| 42040_TS_DEWT_042002.nc | 26-Oct-2024 15:46 | 440170 | ||
| 42040_TS_DEWT_042003.nc | 26-Oct-2024 15:46 | 440018 | ||
| 42040_TS_DEWT_042004.nc | 26-Oct-2024 15:47 | 437295 | ||
| 42040_TS_DEWT_042005.nc | 26-Oct-2024 15:47 | 435039 | ||
| 42040_TS_DEWT_042006.nc | 26-Oct-2024 15:47 | 439972 | ||
| 42040_TS_DEWT_042007.nc | 26-Oct-2024 15:47 | 587673 | ||
| 42040_TS_DEWT_042009.nc | 26-Oct-2024 15:47 | 588182 | ||
| 42040_TS_DEWT_042010.nc | 26-Oct-2024 15:47 | 587948 | ||
| 42040_TS_DEWT_042011.nc | 26-Oct-2024 15:47 | 588210 | ||
| 42040_TS_DEWT_042012.nc | 26-Oct-2024 15:47 | 588210 | ||
| 42040_TS_DEWT_042013.nc | 26-Oct-2024 15:47 | 440333 | ||
| 42040_TS_DEWT_042014.nc | 26-Oct-2024 15:47 | 420117 | ||
| 42040_TS_DEWT_042015.nc | 26-Oct-2024 15:47 | 431727 | ||
| 42040_TS_DEWT_042016.nc | 26-Oct-2024 15:47 | 426072 | ||
| 42040_TS_DEWT_042017.nc | 26-Oct-2024 15:47 | 428319 | ||
| 42040_TS_DEWT_042018.nc | 26-Oct-2024 15:47 | 429509 | ||
| 42040_TS_DEWT_042019.nc | 26-Oct-2024 15:47 | 429593 | ||
| 42040_TS_DEWT_042020.nc | 26-Oct-2024 15:47 | 428464 | ||
| 42040_TS_DEWT_042021.nc | 26-Oct-2024 15:47 | 429600 | ||
| 42040_TS_DEWT_042022.nc | 26-Oct-2024 15:47 | 429603 | ||
| 42040_TS_DEWT_042023.nc | 26-Oct-2024 15:47 | 429605 | ||
| 42040_TS_DEWT_042025.nc | 01-May-2025 04:08 | 429692 | ||
| 42040_TS_DEWT_051996.nc | 26-Oct-2024 15:47 | 422344 | ||
| 42040_TS_DEWT_051997.nc | 26-Oct-2024 15:47 | 427482 | ||
| 42040_TS_DEWT_051998.nc | 26-Oct-2024 15:48 | 429622 | ||
| 42040_TS_DEWT_051999.nc | 26-Oct-2024 15:48 | 429617 | ||
| 42040_TS_DEWT_052000.nc | 26-Oct-2024 15:48 | 429588 | ||
| 42040_TS_DEWT_052001.nc | 26-Oct-2024 15:48 | 429550 | ||
| 42040_TS_DEWT_052002.nc | 26-Oct-2024 15:48 | 429614 | ||
| 42040_TS_DEWT_052003.nc | 26-Oct-2024 15:48 | 429612 | ||
| 42040_TS_DEWT_052004.nc | 26-Oct-2024 15:48 | 429618 | ||
| 42040_TS_DEWT_052005.nc | 26-Oct-2024 15:48 | 429612 | ||
| 42040_TS_DEWT_052006.nc | 26-Oct-2024 15:48 | 429610 | ||
| 42040_TS_DEWT_052007.nc | 26-Oct-2024 15:48 | 429617 | ||
| 42040_TS_DEWT_052008.nc | 26-Oct-2024 15:48 | 449632 | ||
| 42040_TS_DEWT_052009.nc | 26-Oct-2024 15:48 | 451239 | ||
| 42040_TS_DEWT_052010.nc | 26-Oct-2024 15:48 | 449808 | ||
| 42040_TS_DEWT_052011.nc | 26-Oct-2024 15:48 | 449658 | ||
| 42040_TS_DEWT_052012.nc | 26-Oct-2024 15:48 | 450582 | ||
| 42040_TS_DEWT_052013.nc | 26-Oct-2024 15:48 | 449797 | ||
| 42040_TS_DEWT_052014.nc | 26-Oct-2024 15:48 | 450405 | ||
| 42040_TS_DEWT_052015.nc | 26-Oct-2024 15:48 | 429832 | ||
| 42040_TS_DEWT_052016.nc | 26-Oct-2024 15:49 | 450833 | ||
| 42040_TS_DEWT_052017.nc | 26-Oct-2024 15:49 | 429830 | ||
| 42040_TS_DEWT_052018.nc | 26-Oct-2024 15:49 | 429812 | ||
| 42040_TS_DEWT_052019.nc | 26-Oct-2024 15:49 | 451531 | ||
| 42040_TS_DEWT_052020.nc | 26-Oct-2024 15:49 | 450334 | ||
| 42040_TS_DEWT_052021.nc | 26-Oct-2024 15:49 | 449952 | ||
| 42040_TS_DEWT_052022.nc | 26-Oct-2024 15:49 | 419304 | ||
| 42040_TS_DEWT_052023.nc | 26-Oct-2024 15:49 | 449745 | ||
| 42040_TS_DEWT_052025.nc | 01-Jun-2025 04:16 | 449842 | ||
| 42040_TS_DEWT_061996.nc | 26-Oct-2024 15:49 | 1267462 | ||
| 42040_TS_DEWT_061997.nc | 26-Oct-2024 15:49 | 1269397 | ||
| 42040_TS_DEWT_061998.nc | 26-Oct-2024 15:49 | 1268455 | ||
| 42040_TS_DEWT_061999.nc | 26-Oct-2024 15:49 | 1009080 | ||
| 42040_TS_DEWT_062000.nc | 26-Oct-2024 15:49 | 3303923 | ||
| 42040_TS_DEWT_062001.nc | 26-Oct-2024 15:49 | 421444 | ||
| 42040_TS_DEWT_062002.nc | 26-Oct-2024 15:49 | 431325 | ||
| 42040_TS_DEWT_062003.nc | 26-Oct-2024 15:49 | 425142 | ||
| 42040_TS_DEWT_062004.nc | 26-Oct-2024 15:49 | 422894 | ||
| 42040_TS_DEWT_062005.nc | 26-Oct-2024 15:50 | 428601 | ||
| 42040_TS_DEWT_062006.nc | 26-Oct-2024 15:50 | 428591 | ||
| 42040_TS_DEWT_062007.nc | 26-Oct-2024 15:50 | 428605 | ||
| 42040_TS_DEWT_062008.nc | 26-Oct-2024 15:50 | 428942 | ||
| 42040_TS_DEWT_062009.nc | 26-Oct-2024 15:50 | 428601 | ||
| 42040_TS_DEWT_062010.nc | 26-Oct-2024 15:50 | 428602 | ||
| 42040_TS_DEWT_062011.nc | 26-Oct-2024 15:50 | 428612 | ||
| 42040_TS_DEWT_062012.nc | 26-Oct-2024 15:50 | 425445 | ||
| 42040_TS_DEWT_062013.nc | 26-Oct-2024 15:50 | 428617 | ||
| 42040_TS_DEWT_062014.nc | 26-Oct-2024 15:50 | 428617 | ||
| 42040_TS_DEWT_062015.nc | 26-Oct-2024 15:50 | 428918 | ||
| 42040_TS_DEWT_062016.nc | 26-Oct-2024 15:50 | 428616 | ||
| 42040_TS_DEWT_062017.nc | 26-Oct-2024 15:50 | 428479 | ||
| 42040_TS_DEWT_062018.nc | 26-Oct-2024 15:50 | 428617 | ||
| 42040_TS_DEWT_062019.nc | 26-Oct-2024 15:50 | 419584 | ||
| 42040_TS_DEWT_062020.nc | 26-Oct-2024 15:50 | 428614 | ||
| 42040_TS_DEWT_062021.nc | 26-Oct-2024 15:50 | 428616 | ||
| 42040_TS_DEWT_062022.nc | 26-Oct-2024 15:50 | 428614 | ||
| 42040_TS_DEWT_062023.nc | 26-Oct-2024 15:50 | 449066 | ||
| 42040_TS_DEWT_062025.nc | 01-Jul-2025 04:20 | 447010 | ||
| 42040_TS_DEWT_071996.nc | 26-Oct-2024 15:51 | 447756 | ||
| 42040_TS_DEWT_071997.nc | 26-Oct-2024 15:51 | 446710 | ||
| 42040_TS_DEWT_071998.nc | 26-Oct-2024 15:51 | 448720 | ||
| 42040_TS_DEWT_071999.nc | 26-Oct-2024 15:51 | 447001 | ||
| 42040_TS_DEWT_072000.nc | 26-Oct-2024 15:51 | 446124 | ||
| 42040_TS_DEWT_072001.nc | 26-Oct-2024 15:51 | 428792 | ||
| 42040_TS_DEWT_072002.nc | 26-Oct-2024 15:51 | 448616 | ||
| 42040_TS_DEWT_072003.nc | 26-Oct-2024 15:51 | 428805 | ||
| 42040_TS_DEWT_072004.nc | 26-Oct-2024 15:51 | 428806 | ||
| 42040_TS_DEWT_072005.nc | 26-Oct-2024 15:51 | 448168 | ||
| 42040_TS_DEWT_072006.nc | 26-Oct-2024 15:51 | 448520 | ||
| 42040_TS_DEWT_072007.nc | 26-Oct-2024 15:51 | 447484 | ||
| 42040_TS_DEWT_072008.nc | 26-Oct-2024 15:51 | 447412 | ||
| 42040_TS_DEWT_072009.nc | 26-Oct-2024 15:51 | 446942 | ||
| 42040_TS_DEWT_072010.nc | 26-Oct-2024 15:51 | 1025307 | ||
| 42040_TS_DEWT_072011.nc | 26-Oct-2024 15:51 | 1109607 | ||
| 42040_TS_DEWT_072012.nc | 26-Oct-2024 15:51 | 1026384 | ||
| 42040_TS_DEWT_072013.nc | 26-Oct-2024 15:51 | 423804 | ||
| 42040_TS_DEWT_072014.nc | 26-Oct-2024 15:51 | 4924554 | ||
| 42040_TS_DEWT_072015.nc | 26-Oct-2024 15:51 | 426253 | ||
| 42040_TS_DEWT_072016.nc | 26-Oct-2024 15:52 | 428130 | ||
| 42040_TS_DEWT_072017.nc | 26-Oct-2024 15:52 | 427847 | ||
| 42040_TS_DEWT_072018.nc | 26-Oct-2024 15:52 | 429601 | ||
| 42040_TS_DEWT_072019.nc | 26-Oct-2024 15:52 | 429608 | ||
| 42040_TS_DEWT_072020.nc | 26-Oct-2024 15:52 | 429607 | ||
| 42040_TS_DEWT_072021.nc | 26-Oct-2024 15:52 | 428325 | ||
| 42040_TS_DEWT_072022.nc | 26-Oct-2024 15:52 | 429606 | ||
| 42040_TS_DEWT_072023.nc | 26-Oct-2024 15:52 | 429593 | ||
| 42040_TS_DEWT_072025.nc | 01-Aug-2025 04:28 | 429620 | ||
| 42040_TS_DEWT_081996.nc | 26-Oct-2024 15:52 | 425654 | ||
| 42040_TS_DEWT_081997.nc | 26-Oct-2024 15:52 | 422070 | ||
| 42040_TS_DEWT_081998.nc | 26-Oct-2024 15:52 | 429610 | ||
| 42040_TS_DEWT_081999.nc | 26-Oct-2024 15:52 | 429623 | ||
| 42040_TS_DEWT_082000.nc | 26-Oct-2024 15:52 | 429599 | ||
| 42040_TS_DEWT_082001.nc | 26-Oct-2024 15:52 | 429528 | ||
| 42040_TS_DEWT_082002.nc | 26-Oct-2024 15:52 | 429623 | ||
| 42040_TS_DEWT_082003.nc | 26-Oct-2024 15:52 | 429616 | ||
| 42040_TS_DEWT_082004.nc | 26-Oct-2024 15:52 | 429624 | ||
| 42040_TS_DEWT_082005.nc | 26-Oct-2024 15:52 | 429611 | ||
| 42040_TS_DEWT_082006.nc | 26-Oct-2024 15:52 | 429612 | ||
| 42040_TS_DEWT_082007.nc | 26-Oct-2024 15:52 | 450465 | ||
| 42040_TS_DEWT_082008.nc | 26-Oct-2024 15:52 | 450811 | ||
| 42040_TS_DEWT_082009.nc | 26-Oct-2024 15:53 | 449989 | ||
| 42040_TS_DEWT_082010.nc | 26-Oct-2024 15:53 | 450320 | ||
| 42040_TS_DEWT_082011.nc | 26-Oct-2024 15:53 | 449746 | ||
| 42040_TS_DEWT_082012.nc | 26-Oct-2024 15:53 | 450878 | ||
| 42040_TS_DEWT_082013.nc | 26-Oct-2024 15:53 | 429833 | ||
| 42040_TS_DEWT_082014.nc | 26-Oct-2024 15:53 | 429820 | ||
| 42040_TS_DEWT_082015.nc | 26-Oct-2024 15:53 | 450757 | ||
| 42040_TS_DEWT_082016.nc | 26-Oct-2024 15:53 | 429837 | ||
| 42040_TS_DEWT_082017.nc | 26-Oct-2024 15:53 | 429834 | ||
| 42040_TS_DEWT_082018.nc | 26-Oct-2024 15:53 | 449908 | ||
| 42040_TS_DEWT_082019.nc | 26-Oct-2024 15:53 | 450105 | ||
| 42040_TS_DEWT_082020.nc | 26-Oct-2024 15:53 | 450401 | ||
| 42040_TS_DEWT_082021.nc | 26-Oct-2024 15:53 | 450522 | ||
| 42040_TS_DEWT_082022.nc | 26-Oct-2024 15:53 | 420507 | ||
| 42040_TS_DEWT_082023.nc | 26-Oct-2024 15:53 | 451016 | ||
| 42040_TS_DEWT_082025.nc | 01-Sep-2025 04:31 | 1263887 | ||
| 42040_TS_DEWT_091996.nc | 26-Oct-2024 15:53 | 1266409 | ||
| 42040_TS_DEWT_091997.nc | 26-Oct-2024 15:53 | 1264970 | ||
| 42040_TS_DEWT_091998.nc | 26-Oct-2024 15:53 | 1733135 | ||
| 42040_TS_DEWT_092000.nc | 26-Oct-2024 15:53 | 3398201 | ||
| 42040_TS_DEWT_092001.nc | 26-Oct-2024 15:53 | 426056 | ||
| 42040_TS_DEWT_092002.nc | 26-Oct-2024 15:53 | 425612 | ||
| 42040_TS_DEWT_092003.nc | 26-Oct-2024 15:54 | 426234 | ||
| 42040_TS_DEWT_092004.nc | 26-Oct-2024 15:54 | 428111 | ||
| 42040_TS_DEWT_092005.nc | 26-Oct-2024 15:54 | 429273 | ||
| 42040_TS_DEWT_092006.nc | 26-Oct-2024 15:54 | 429263 | ||
| 42040_TS_DEWT_092007.nc | 26-Oct-2024 15:54 | 429204 | ||
| 42040_TS_DEWT_092008.nc | 26-Oct-2024 15:54 | 426082 | ||
| 42040_TS_DEWT_092009.nc | 26-Oct-2024 15:54 | 429272 | ||
| 42040_TS_DEWT_092010.nc | 26-Oct-2024 15:54 | 429272 | ||
| 42040_TS_DEWT_092011.nc | 26-Oct-2024 15:54 | 429284 | ||
| 42040_TS_DEWT_092012.nc | 26-Oct-2024 15:54 | 429292 | ||
| 42040_TS_DEWT_092013.nc | 26-Oct-2024 15:54 | 429261 | ||
| 42040_TS_DEWT_092014.nc | 26-Oct-2024 15:54 | 429288 | ||
| 42040_TS_DEWT_092015.nc | 26-Oct-2024 15:54 | 422295 | ||
| 42040_TS_DEWT_092016.nc | 26-Oct-2024 15:54 | 429282 | ||
| 42040_TS_DEWT_092017.nc | 26-Oct-2024 15:54 | 429290 | ||
| 42040_TS_DEWT_092018.nc | 26-Oct-2024 15:54 | 429296 | ||
| 42040_TS_DEWT_092019.nc | 26-Oct-2024 15:54 | 425979 | ||
| 42040_TS_DEWT_092020.nc | 26-Oct-2024 15:54 | 429286 | ||
| 42040_TS_DEWT_092021.nc | 26-Oct-2024 15:55 | 429295 | ||
| 42040_TS_DEWT_092022.nc | 26-Oct-2024 15:55 | 429290 | ||
| 42040_TS_DEWT_092023.nc | 26-Oct-2024 15:55 | 448432 | ||
| 42040_TS_DEWT_092025.nc | 01-Oct-2025 04:08 | 450230 | ||
| 42040_TS_DEWT_101996.nc | 26-Oct-2024 15:55 | 448925 | ||
| 42040_TS_DEWT_101997.nc | 26-Oct-2024 15:55 | 448813 | ||
| 42040_TS_DEWT_101998.nc | 26-Oct-2024 15:55 | 449078 | ||
| 42040_TS_DEWT_101999.nc | 26-Oct-2024 15:55 | 448269 | ||
| 42040_TS_DEWT_102000.nc | 26-Oct-2024 15:55 | 436945 | ||
| 42040_TS_DEWT_102001.nc | 26-Oct-2024 15:55 | 429476 | ||
| 42040_TS_DEWT_102002.nc | 26-Oct-2024 15:55 | 445725 | ||
| 42040_TS_DEWT_102003.nc | 26-Oct-2024 15:55 | 429493 | ||
| 42040_TS_DEWT_102005.nc | 26-Oct-2024 15:55 | 421305 | ||
| 42040_TS_DEWT_102006.nc | 26-Oct-2024 15:55 | 431480 | ||
| 42040_TS_DEWT_102007.nc | 26-Oct-2024 15:55 | 448356 | ||
| 42040_TS_DEWT_102008.nc | 26-Oct-2024 15:55 | 450594 | ||
| 42040_TS_DEWT_102009.nc | 26-Oct-2024 15:55 | 448886 | ||
| 42040_TS_DEWT_102010.nc | 26-Oct-2024 15:55 | 449570 | ||
| 42040_TS_DEWT_102011.nc | 26-Oct-2024 15:55 | 444363 | ||
| 42040_TS_DEWT_102012.nc | 26-Oct-2024 15:55 | 1112953 | ||
| 42040_TS_DEWT_102013.nc | 26-Oct-2024 15:56 | 1011988 | ||
| 42040_TS_DEWT_102014.nc | 26-Oct-2024 15:56 | 473839 | ||
| 42040_TS_DEWT_102015.nc | 26-Oct-2024 15:56 | 1112455 | ||
| 42040_TS_DEWT_102016.nc | 26-Oct-2024 15:56 | 4745594 | ||
| 42040_TS_DEWT_102017.nc | 26-Oct-2024 15:56 | 427339 | ||
| 42040_TS_DEWT_102018.nc | 26-Oct-2024 15:56 | 421940 | ||
| 42040_TS_DEWT_102019.nc | 26-Oct-2024 15:56 | 426217 | ||
| 42040_TS_DEWT_102021.nc | 26-Oct-2024 15:56 | 426146 | ||
| 42040_TS_DEWT_102022.nc | 26-Oct-2024 15:56 | 429600 | ||
| 42040_TS_DEWT_102023.nc | 26-Oct-2024 15:56 | 429590 | ||
| 42040_TS_DEWT_102024.nc | 12-Jan-2025 20:36 | 429603 | ||
| 42040_TS_DEWT_102025.nc | 01-Nov-2025 06:16 | 429604 | ||
| 42040_TS_DEWT_111996.nc | 26-Oct-2024 15:56 | 427380 | ||
| 42040_TS_DEWT_111997.nc | 26-Oct-2024 15:56 | 423810 | ||
| 42040_TS_DEWT_111998.nc | 26-Oct-2024 15:56 | 429611 | ||
| 42040_TS_DEWT_111999.nc | 26-Oct-2024 15:56 | 429618 | ||
| 42040_TS_DEWT_112000.nc | 26-Oct-2024 15:56 | 429612 | ||
| 42040_TS_DEWT_112001.nc | 26-Oct-2024 15:56 | 423686 | ||
| 42040_TS_DEWT_112002.nc | 26-Oct-2024 15:56 | 429620 | ||
| 42040_TS_DEWT_112003.nc | 26-Oct-2024 15:56 | 429588 | ||
| 42040_TS_DEWT_112004.nc | 26-Oct-2024 15:56 | 429606 | ||
| 42040_TS_DEWT_112005.nc | 26-Oct-2024 15:56 | 429613 | ||
| 42040_TS_DEWT_112006.nc | 26-Oct-2024 15:57 | 429612 | ||
| 42040_TS_DEWT_112007.nc | 26-Oct-2024 15:57 | 429625 | ||
| 42040_TS_DEWT_112008.nc | 26-Oct-2024 15:57 | 429615 | ||
| 42040_TS_DEWT_112010.nc | 26-Oct-2024 15:57 | 429612 | ||
| 42040_TS_DEWT_112011.nc | 26-Oct-2024 15:57 | 438049 | ||
| 42040_TS_DEWT_112012.nc | 26-Oct-2024 15:57 | 450568 | ||
| 42040_TS_DEWT_112013.nc | 26-Oct-2024 15:57 | 449914 | ||
| 42040_TS_DEWT_112014.nc | 26-Oct-2024 15:57 | 449060 | ||
| 42040_TS_DEWT_112015.nc | 26-Oct-2024 15:57 | 442168 | ||
| 42040_TS_DEWT_112016.nc | 26-Oct-2024 15:57 | 451327 | ||
| 42040_TS_DEWT_112017.nc | 26-Oct-2024 15:57 | 449969 | ||
| 42040_TS_DEWT_112018.nc | 26-Oct-2024 15:57 | 450421 | ||
| 42040_TS_DEWT_112019.nc | 26-Oct-2024 15:57 | 429819 | ||
| 42040_TS_DEWT_112021.nc | 26-Oct-2024 15:57 | 450223 | ||
| 42040_TS_DEWT_112022.nc | 26-Oct-2024 15:57 | 429832 | ||
| 42040_TS_DEWT_112023.nc | 26-Oct-2024 15:57 | 419158 | ||
| 42040_TS_DEWT_112024.nc | 17-Jan-2025 14:44 | 429835 | ||
| 42040_TS_DEWT_112025.nc | 01-Dec-2025 07:08 | 450191 | ||
| 42040_TS_DEWT_121995.nc | 26-Oct-2024 15:57 | 450031 | ||
| 42040_TS_DEWT_121996.nc | 26-Oct-2024 15:57 | 450318 | ||
| 42040_TS_DEWT_121997.nc | 26-Oct-2024 15:57 | 450838 | ||
| 42040_TS_DEWT_121998.nc | 26-Oct-2024 15:57 | 1113258 | ||
| 42040_TS_DEWT_121999.nc | 26-Oct-2024 15:57 | 1263810 | ||
| 42040_TS_DEWT_122000.nc | 26-Oct-2024 15:58 | 1144195 | ||
| 42040_TS_DEWT_122001.nc | 26-Oct-2024 15:58 | 1262914 | ||
| 42040_TS_DEWT_122002.nc | 26-Oct-2024 15:58 | 1268971 | ||
| 42040_TS_DEWT_122003.nc | 26-Oct-2024 15:58 | 5566644 | ||
| 42040_TS_DEWT_122004.nc | 26-Oct-2024 15:58 | 426982 | ||
| 42040_TS_DEWT_122005.nc | 26-Oct-2024 15:58 | 425951 | ||
| 42040_TS_DEWT_122006.nc | 26-Oct-2024 15:58 | 425980 | ||
| 42040_TS_DEWT_122007.nc | 26-Oct-2024 15:58 | 425875 | ||
| 42040_TS_DEWT_122008.nc | 26-Oct-2024 15:58 | 429272 | ||
| 42040_TS_DEWT_122010.nc | 26-Oct-2024 15:58 | 429255 | ||
| 42040_TS_DEWT_122011.nc | 26-Oct-2024 15:58 | 429268 | ||
| 42040_TS_DEWT_122012.nc | 26-Oct-2024 15:58 | 429270 | ||
| 42040_TS_DEWT_122013.nc | 26-Oct-2024 15:58 | 425914 | ||
| 42040_TS_DEWT_122014.nc | 26-Oct-2024 15:58 | 429275 | ||
| 42040_TS_DEWT_122015.nc | 26-Oct-2024 15:58 | 428687 | ||
| 42040_TS_DEWT_122016.nc | 26-Oct-2024 15:58 | 429289 | ||
| 42040_TS_DEWT_122017.nc | 26-Oct-2024 15:58 | 429178 | ||
| 42040_TS_DEWT_122018.nc | 26-Oct-2024 15:58 | 429289 | ||
| 42040_TS_DEWT_122019.nc | 26-Oct-2024 15:59 | 423911 | ||
| 42040_TS_DEWT_122021.nc | 26-Oct-2024 15:59 | 428252 | ||
| 42040_TS_DEWT_122022.nc | 26-Oct-2024 15:59 | 429286 | ||
| 42040_TS_DEWT_122023.nc | 26-Oct-2024 15:59 | 429295 | ||
| 42040_TS_DEWT_122024.nc | 22-Jan-2025 16:30 | 429291 | ||
| 42040_TS_DEWT_122025.nc | 20-Dec-2025 05:42 | 429290 | ||